Simultaneous Nadir Overpasses (SNOs) Predictions

Prediction of SNOs between FY3D and LANDSAT-8 Satellite Orbit:

Table of predicted SNOs for the next 14.0 days since TLE Epoch: 2/10/2024
Index Date (FY3D) Time (FY3D) Lat,Lon (FY3D) SZA (FY3D ) Date (LANDSAT-8) Time (LANDSAT-8) Lat,Lon (LANDSAT-8) SZA (LANDSAT-8 ) Distance(km) Time Diff (sec)
1 02/12/2024 15:53:55 -73.93, 124.29 92.45 02/12/2024 15:54:59 -73.95, 124.21 92.43 3.36 64
2 02/12/2024 16:44:40 73.89, -68.29 87.50 02/12/2024 16:44:26 73.87, -68.33 87.48 2.59 14
3 02/12/2024 17:35:12 -73.24, 100.56 93.17 02/12/2024 17:34:05 -73.28, 98.04 93.12 80.82 67
4 02/15/2024 07:20:49 73.99, 72.48 86.72 02/15/2024 07:21:58 74.01, 72.58 86.74 3.68 69
5 02/15/2024 08:11:33 -73.93,-120.06 93.36 02/15/2024 08:11:27 -73.94,-119.94 93.35 3.70 6
6 02/15/2024 09:02:10 73.50, 48.30 86.20 02/15/2024 09:01:00 73.54, 46.84 86.25 46.58 70
7 02/17/2024 22:47:46 -74.23, 20.19 93.95 02/17/2024 22:48:57 -74.15, 21.14 94.05 30.20 71
8 02/17/2024 23:38:25 73.90,-171.66 85.70 02/17/2024 23:38:27 73.90,-171.76 85.71 3.39 2
9 02/18/2024 00:29:09 -73.84, -4.20 94.37 02/18/2024 00:27:56 -73.84, -4.28 94.38 2.64 73
10 02/20/2024 14:14:42 74.46, -32.08 85.34 02/20/2024 14:15:50 74.39, -30.04 85.27 61.23 68
11 02/20/2024 15:05:17 -73.96, 136.53 95.18 02/20/2024 15:05:26 -73.96, 136.60 95.18 2.20 9
12 02/20/2024 15:56:01 73.87, -55.94 84.72 02/20/2024 15:54:53 73.87, -55.95 84.72 0.37 68
13 02/23/2024 06:32:09 73.95, 84.88 83.86 02/23/2024 06:32:24 73.96, 84.85 83.86 0.98 15



Historial Predications of SNOs between FY3D and LANDSAT-8
